FW2347 Weather Reports


Display with metric or nautical units.
time (UTC)temp
F
wind
direction
speed
MPH
gust
MPH
rain 1hr
in
rain 24hr
in
rain mn
in
humidity
%
barometer
mb
20260905201603 73 360 0.0 0.0 0.00 0.00 0.00 58 1019.9
20260905200048 74 5 0.0 0.0 0.00 0.00 0.00 56 1019.6
20260905194526 75 5 0.0 0.0 0.00 0.00 0.00 55 1019.5
20260905193011 76 0.0 0.0 0.00 0.00 0.00 53 1019.4
20260905191502 78 0.0 0.0 0.00 0.00 0.00 52 1019.3
20260905190054 79 360 0.0 0.0 0.00 0.00 0.00 49 1019.2
20260905184538 82 5 0.0 0.0 0.00 0.00 0.00 48 1019.2
20260905183023 84 0.0 0.0 0.00 0.00 0.00 46 1019.0
20260905181523 86 5 0.0 0.0 0.00 0.00 0.00 45 1018.8
20260905180020 87 5 0.0 0.0 0.00 0.00 0.00 43 1018.6
20260905174522 88 0.0 0.0 0.00 0.00 0.00 41 1018.5
20260905173007 89 5 0.0 0.0 0.00 0.00 0.00 40 1018.3
20260905171605 90 0.0 0.0 0.00 0.00 0.00 40 1018.2
20260905170056 91 360 0.0 0.0 0.00 0.00 0.00 38 1017.9
20260905164540 92 360 0.0 0.0 0.00 0.00 0.00 37 1017.8
20260905163033 92 5 0.0 0.0 0.00 0.00 0.00 36 1017.7
20260905161512 93 5 0.0 0.0 0.00 0.00 0.00 35 1017.5
20260905160019 93 360 0.0 0.0 0.00 0.00 0.00 34 1017.4
20260905154504 94 360 0.0 0.0 0.00 0.00 0.00 34 1017.5
20260905153102 94 0.0 0.0 0.00 0.00 0.00 34 1017.4
20260905151551 95 5 0.0 0.0 0.00 0.00 0.00 33 1017.4
20260905150032 95 360 0.0 0.0 0.00 0.00 0.00 33 1017.4
20260905144538 96 5 0.0 0.0 0.00 0.00 0.00 33 1017.4
20260905143007 96 0.0 0.0 0.00 0.00 0.00 32 1017.5
20260905141600 96 360 0.0 0.0 0.00 0.00 0.00 31 1017.4
20260905140039 97 0.0 0.0 0.00 0.00 0.00 30 1017.5
20260905134529 96 360 0.0 0.0 0.00 0.00 0.00 30 1017.6
20260905133026 97 0.0 0.0 0.00 0.00 0.00 30 1017.7
20260905131525 97 360 0.0 0.0 0.00 0.00 0.00 30 1017.8
20260905130015 97 5 0.0 0.0 0.00 0.00 0.00 30 1017.9
20260905124604 98 5 0.0 0.0 0.00 0.00 0.00 30 1018.0
20260905123048 97 5 0.0 0.0 0.00 0.00 0.00 31 1018.2
20260905121543 97 360 0.0 0.0 0.00 0.00 0.00 31 1018.3
20260905120018 96 5 0.0 0.0 0.00 0.00 0.00 32 1018.5
20260905114503 96 360 0.0 0.0 0.00 0.00 0.00 32 1018.7
20260905113001 95 5 0.0 0.0 0.00 0.00 0.00 33 1018.8
20260905111613 95 5 0.0 0.0 0.00 0.00 0.00 34 1018.9
20260905110044 94 360 0.0 0.0 0.00 0.00 0.00 35 1019.0
20260905104525 93 360 0.0 0.0 0.00 0.00 0.00 39 1019.1
20260905103005 92 360 0.0 0.0 0.00 0.00 0.00 40 1019.2
20260905101544 92 5 0.0 0.0 0.00 0.00 0.00 42 1019.4
20260905100019 91 5 0.0 0.0 0.00 0.00 0.00 42 1019.5
20260905094504 90 5 0.0 0.0 0.00 0.00 0.00 43 1019.6
20260905093053 89 5 0.0 0.0 0.00 0.00 0.00 46 1019.7
20260905091545 87 360 0.0 0.0 0.00 0.00 0.00 49 1019.7
20260905090030 87 5 0.0 0.0 0.00 0.00 0.00 51 1019.6
20260905084535 84 5 0.0 0.0 0.00 0.00 0.00 56 1019.6
20260905083016 82 360 0.0 0.0 0.00 0.00 0.00 59 1019.6
20260905081601 79 0.0 0.0 0.00 0.00 0.00 63 1019.5
20260905080055 79 5 0.0 0.0 0.00 0.00 0.00 64 1019.5
20260905074508 77 5 0.0 0.0 0.00 0.00 0.00 67 1019.6
20260905073059 76 0.0 0.0 0.00 0.00 0.00 70 1019.6
20260905071553 73 360 0.0 0.0 0.00 0.00 0.00 71 1019.6
20260905070042 71 360 0.0 0.0 0.00 0.00 0.00 69 1019.4
20260905064503 68 360 0.0 0.0 0.00 0.00 0.00 63 1019.5
20260905063006 65 5 0.0 0.0 0.00 0.00 0.00 56 1019.5
20260905061608 64 5 0.0 0.0 0.00 0.00 0.00 52 1019.3
20260905060035 63 5 0.0 0.0 0.00 0.00 0.00 50 1019.2
20260905054513 63 5 0.0 0.0 0.00 0.00 0.00 54 1019.0
20260905053004 63 360 0.0 0.0 0.00 0.00 0.00 54 1018.9
20260905051600 63 0.0 0.0 0.00 0.00 0.00 52 1018.9
20260905050048 63 5 0.0 0.0 0.00 0.00 0.00 52 1018.9
20260905044530 64 360 0.0 0.0 0.00 0.00 0.00 51 1018.7
20260905043042 64 0.0 0.0 0.00 0.00 0.00 53 1018.8
20260905041520 64 360 0.0 0.0 0.00 0.00 0.00 53 1018.6
20260905040017 65 5 0.0 0.0 0.00 0.00 0.00 54 1018.6
20260905034511 65 5 0.0 0.0 0.00 0.00 0.00 49 1018.6
20260905033101 65 5 0.0 0.0 0.00 0.00 0.00 50 1018.6
20260905031553 65 360 0.0 0.0 0.00 0.00 0.00 54 1018.4
20260905030048 66 360 0.0 0.0 0.00 0.00 0.00 53 1018.5
20260905024538 65 360 0.0 0.0 0.00 0.00 0.00 55 1018.4
20260905023019 66 0.0 0.0 0.00 0.00 0.00 55 1018.4
20260905021508 65 5 0.0 0.0 0.00 0.00 0.00 54 1018.6
20260905020004 66 360 0.0 0.0 0.00 0.00 0.00 56 1018.5
20260905014548 66 5 0.0 0.0 0.00 0.00 0.00 58 1018.4
20260905013028 66 5 0.0 0.0 0.00 0.00 0.00 59 1018.6
20260905011506 66 0.0 0.0 0.00 0.00 0.00 59 1018.6
20260905010108 67 0.0 0.0 0.00 0.00 0.00 61 1018.6
20260905004552 67 360 0.0 0.0 0.00 0.00 0.00 61 1018.6
20260905003032 68 360 0.0 0.0 0.00 0.00 0.00 63 1018.6
20260905001507 68 360 0.0 0.0 0.00 0.00 0.00 64 1018.7
20260904234557 69 360 0.0 0.0 0.00 0.00 0.00 66 1018.8
20260904233028 69 360 0.0 0.0 0.00 0.00 0.00 68 1018.8
20260904231504 70 360 0.0 0.0 0.00 0.00 0.00 69 1018.7
20260904230056 70 360 0.0 0.0 0.00 0.00 0.00 70 1018.6
20260904224556 70 5 0.0 0.0 0.00 0.00 0.00 70 1018.7
20260904223048 70 5 0.0 0.0 0.00 0.00 0.00 72 1018.7
20260904221532 71 5 0.0 0.0 0.00 0.00 0.00 72 1018.7
20260904220032 72 5 0.0 0.0 0.00 0.00 0.00 72 1018.7
20260904214536 72 5 0.0 0.0 0.00 0.00 0.00 72 1018.6
20260904213028 73 5 0.0 0.0 0.00 0.00 0.00 72 1018.7
20260904211517 73 360 0.0 0.0 0.00 0.00 0.00 71 1018.4
20260904210008 74 360 0.0 0.0 0.00 0.00 0.00 71 1018.7
20260904204512 74 5 0.0 0.0 0.00 0.00 0.00 70 1018.6